Location: Sungai Bunut
(2.6333°N, 113.7333°E)
Time: 16:18:38
(UTC+00:00)

Altair - Pass Details

Date: 10 December 2023
Orbit: 1501 x 1682 km, 47.2° (Epoch: 24 February)

Event Time Altitude Azimuth Distance (km) Brightness Sun altitude
Rises 07:35:32 0° 325° (NW) 4,628 10.1 35.5°
Reaches altitude 10° 07:38:34 10° 327° (NNW) 3,643 9.6 34.8°
Maximum altitude 07:47:40 71° 50° (NE) 1,574 7.9 32.8°
Drops below altitude 10° 07:56:54 10° 133° (SE) 3,697 9.4 30.8°
Sets 07:59:59 0° 135° (SE) 4,701 9.9 30.2°
